Location: Milton Keynes
(52.0316°N, 0.7531°W)
Time: 23:29:36
(UTC+00:00)

BlueWalker 3 - Pass Details

Date: 20 December 2025
Orbit: 451 x 463 km, 53.2° (Epoch: 15 January)

Event Time Altitude Azimuth Distance (km) Brightness Sun altitude
Rises 06:13:35 0° 186° (S) 2,452 5.6 -16.4°
Reaches altitude 10° 06:17:12 10° 148° (SSE) 1,589 5.2 -15.8°
Maximum altitude 06:18:07 11° 133° (SE) 1,543 5.4 -15.7°
Drops below altitude 10° 06:19:02 10° 118° (ESE) 1,594 5.8 -15.6°
Sets 06:22:40 0° 80° (E) 2,477 6.6 -15.0°
